Miscellaneous Local Product
Issued by NWS North Platte, NE

Home | Current Version | Previous Version | Text Only | Print | Product List | Glossary On
Versions: 1 2 3 4 5 6 7 8 9 10 11 12 13 14 15 16 17 18 19 20 21 22 23 24 25 26 27 28 29 30 31 32 33 34 35 36 37 38 39 40 41 42 43 44 45 46 47 48 49 50
000
AXUS43 KLBF 181010
MISLBF


WESTERN AND NORTH CENTRAL NEBRASKA HOURLY WEATHER ROUNDUP
NATIONAL WEATHER SERVICE NORTH PLATTE NE
500 AM CDT FRI APR 18 2014

***STATIONS NOT REPORTING VARIABLES SUCH AS SKY/WEATHER OR
PRESSURE ARE PROVIDED BY THE NEBRASKA DEPARTMENT OF
ROADS...RAWS...AND APRS NETWORKS...AND ARE NOT UNDER
NATIONAL WEATHER SERVICE QUALITY CONTROL***

...OBSERVATIONS IN AND NEAR THE EASTERN PANHANDLE OF NEBRASKA...

CITY           SKY/WX    TMP DP  RH WIND       PRES   REMARKS
PINE RIDGE     PTCLDY    44  37  76 SW12      29.88F
CHADRON        PTCLDY    43  35  73 CALM      29.86S
ALLIANCE       PTCLDY    38  34  85 SE10      29.92F WCI  31
SIDNEY         PTCLDY    38  33  82 S9        29.97F WCI  31
WHITECLAY        N/A     41  34  77 S15         N/A
CRESCENT LAKE    N/A     39  37  94 S8          N/A  WCI  33
LISCO            N/A     42  34  72 E3          N/A
BIG SPRINGS      N/A     39  37  91 W3          N/A
LEWELLEN         N/A     39  36  89 E5          N/A
$$

...OBSERVATIONS IN SOUTHWEST NEBRASKA AND FAR NORTHEAST COLORADO...

CITY           SKY/WX    TMP DP  RH WIND       PRES   REMARKS
WRAY           FAIR      41  35  79 S13       30.04F
HOLYOKE        FAIR      39  36  87 S12       30.02F WCI  32
IMPERIAL       CLEAR     40  35  83 S14       30.05F WCI  32
OGALLALA       CLEAR     39  36  86 S13       30.02F WCI  32
NORTH PLATTE   CLEAR     41  36  82 S13       30.07F
MCCOOK         CLEAR     38  36  92 S9        30.13S FOG     WCI  31
LEXINGTON      CLEAR     40  37  87 S12       30.14S WCI  34
PAXTON           N/A     40  37  89 S17         N/A  WCI  31
SUTHERLAND       N/A     35  33  92 S15         N/A  WCI  25
MEDICINE CREEK   N/A     35  32  89 CALM        N/A
GOTHENBURG       N/A     43  39  85 S6G15       N/A
CALLAWAY         N/A     34  30  85 S7          N/A  WCI  28
$$

...OBSERVATIONS IN NORTH CENTRAL NEBRASKA...

CITY           SKY/WX    TMP DP  RH WIND       PRES   REMARKS
VALENTINE      CLEAR     42  33  70 S18       29.98F
THEDFORD       CLEAR     42  36  79 S13G18    30.03F
AINSWORTH      CLEAR     39  32  76 S15       30.02F WCI  30
O`NEILL        PTCLDY    37  26  67 SE8       30.12F WCI  30
ORD            CLEAR     34  28  79 SE6       30.14S WCI  29
BROKEN BOW     CLEAR     36  31  82 S10       30.10F WCI  28
BROWNLEE         N/A     42  37  83 S18         N/A
SPRINGVIEW       N/A     41  32  69 MISG        N/A
DUNNING          N/A     39  36  87 S6          N/A  WCI  35
BREWSTER         N/A     37  31  79 S7          N/A  WCI  31
ROSE             N/A     38  33  80 E12         N/A  WCI  31
NEWPORT          N/A     40  31  69 S13         N/A  WCI  32
COMSTOCK         N/A     38  32  79 S8          N/A  WCI  32
CHAMBERS         N/A     35  26  69 S3G12       N/A
EWING            N/A     34  26  71 S3          N/A
$$

...SOME WEATHER OBSERVATIONS FROM AROUND THE REGION...

CITY           SKY/WX    TMP DP  RH WIND       PRES   REMARKS
DENVER         PTCLDY    46  29  51 SW14      29.99S
LARAMIE        CLEAR     40  21  46 S13       30.02S WCI  32
CHEYENNE       CLEAR     38  28  67 SW5       29.99S WCI  34
SCOTTSBLUFF    CLEAR     41  34  76 SE10      29.92S
RAPID CITY     CLEAR     33  31  92 CALM      29.85F
PIERRE         PTCLDY    36  26  67 E12       29.99F WCI  28
WINNER         CLOUDY    44  29  55 S22G31    29.99F
SIOUX FALLS    PTCLDY    33  28  81 SE12      30.23F WCI  24
OMAHA          PTCLDY    32  27  81 CALM      30.27R
GRAND ISLAND   CLEAR     39  29  67 S13       30.19S WCI  31
KANSAS CITY    PTCLDY    37  32  82 CALM      30.27S
WICHITA        CLEAR     34  31  88 CALM      30.25S FOG
HAYS           CLEAR     36  32  87 S8        30.19F WCI  29
LIBERAL        CLOUDY    43  37  81 SW9       30.22S
GOODLAND       CLEAR     36  33  89 S17       30.09F WCI  26
$$



USA.gov is the U.S. government's official web portal to all federal, state and local government web resources and services.